Вернуться в каталог

SL-12 R/B

AUX MOTOR

АктивенHEO
NORAD 32281·ROCKET BODY·🇷🇺 Russia

Запущен Oct 26, 2007 с Baikonur Cosmodrome

Loading…

Ближайшие Пролёты (ближайшие 24 часа)

TLE

СвежийSource: Space-Track

Эпоха: Sep 14, 2026, 07:42 UTC

1 32281U 07052G   26257.32146792  .00000066  00000-0  17937-3 0  9998
2 32281  65.0256 267.3267 5727914 197.4336 129.5790  4.23763157291691

Отслеживайте SL-12 R/B в реальном времени с AllMySat

Download on the App Store